TimeCDT,TemperatureF,Dew PointF,Humidity,Sea Level PressureIn,VisibilityMPH,Wind Direction,Wind SpeedMPH,Gust SpeedMPH,PrecipitationIn,Events,Conditions,WindDirDegrees,DateUTC
12:58 AM,54.5,50.0,85,30.07,10.0,West,2.3,-,N/A,,Clear,270,2013-09-15 05:58:00
1:58 AM,53.1,49.6,88,30.07,10.0,Calm,Calm,-,N/A,,Clear,0,2013-09-15 06:58:00
2:58 AM,51.3,48.7,91,30.06,10.0,West,1.2,-,N/A,,Clear,270,2013-09-15 07:58:00
3:58 AM,50.9,47.3,87,30.05,10.0,Calm,Calm,-,N/A,,Clear,0,2013-09-15 08:58:00
4:58 AM,49.5,45.7,87,30.06,10.0,West,2.3,-,N/A,,Clear,270,2013-09-15 09:58:00
5:58 AM,49.1,46.6,91,30.07,10.0,West,2.3,-,N/A,,Clear,270,2013-09-15 10:58:00
6:58 AM,48.7,46.2,91,30.09,10.0,Calm,Calm,-,N/A,,Clear,0,2013-09-15 11:58:00
7:58 AM,53.2,49.6,88,30.10,10.0,WNW,1.2,-,N/A,,Clear,300,2013-09-15 12:58:00
8:58 AM,61.5,52.9,73,30.11,10.0,Calm,Calm,-,N/A,,Clear,0,2013-09-15 13:58:00
9:58 AM,68.7,54.0,59,30.12,10.0,South,2.3,-,N/A,,Clear,180,2013-09-15 14:58:00
10:58 AM,75.4,51.4,43,30.12,10.0,SSE,5.8,-,N/A,,Clear,160,2013-09-15 15:58:00
11:58 AM,79.2,48.0,33,30.11,10.0,SSE,5.8,-,N/A,,Clear,150,2013-09-15 16:58:00
12:58 PM,82.4,50.4,33,30.09,10.0,Variable,3.5,-,N/A,,Clear,0,2013-09-15 17:58:00
1:58 PM,84.2,50.7,31,30.08,10.0,West,5.8,-,N/A,,Clear,260,2013-09-15 18:58:00
2:58 PM,87.1,50.9,29,30.06,10.0,Variable,1.2,-,N/A,,Clear,0,2013-09-15 19:58:00
3:58 PM,89.2,51.4,27,30.04,10.0,Variable,6.9,-,N/A,,Clear,0,2013-09-15 20:58:00
4:58 PM,87.8,52.9,30,30.04,10.0,East,5.8,-,N/A,,Clear,100,2013-09-15 21:58:00
5:58 PM,87.6,52.7,30,30.04,10.0,East,5.8,-,N/A,,Clear,100,2013-09-15 22:58:00
6:58 PM,83.7,53.6,35,30.05,10.0,SSE,5.8,-,N/A,,Clear,150,2013-09-15 23:58:00
7:58 PM,72.1,57.7,60,30.05,10.0,SE,4.6,-,N/A,,Clear,140,2013-09-16 00:58:00
8:58 PM,68.5,57.0,67,30.06,10.0,East,3.5,-,N/A,,Clear,80,2013-09-16 01:58:00
9:58 PM,66.0,57.2,73,30.06,10.0,Variable,2.3,-,N/A,,Clear,0,2013-09-16 02:58:00
10:58 PM,64.0,57.4,79,30.06,10.0,NW,1.2,-,N/A,,Clear,320,2013-09-16 03:58:00
11:58 PM,64.4,57.0,77,30.07,10.0,West,2.3,-,N/A,,Clear,270,2013-09-16 04:58:00